Regional Weather Roundup
Issued by NWS

Home | Current Version | Previous Version | Text Only | Print | Product List | Glossary On
Versions: 1 2 3 4 5 6 7 8 9 10 11 12 13 14 15 16 17 18 19 20 21 22 23 24 25 26 27 28 29 30 31 32 33 34 35 36 37 38 39 40 41 42 43 44 45 46 47 48 49 50
000
ASUS43 KFSD 171910
RWRSD

WEATHER ROUNDUP FOR SOUTH DAKOTA
NATIONAL WEATHER SERVICE SIOUX FALLS SD
100 PM CST TUE JAN 17 2017

NOTE: "FAIR" INDICATES FEW OR NO CLOUDS BELOW 12,000 FEET WITH NO
SIGNIFICANT WEATHER AND/OR OBSTRUCTIONS TO VISIBILITY.


SDZ001>005-009-010-012>017-172000-
NORTHWEST AND NORTH CENTRAL SOUTH DAKOTA

CITY           SKY/WX    TMP DP  RH WIND       PRES   REMARKS
BUFFALO          N/A     32  19  58 W13       29.79F WCI  22
FAITH            N/A     22  14  71 SW12      29.88F WCI  10
MOBRIDGE       CLOUDY    16   9  74 S9        29.89F WCI   4
$$

SDZ012>016-024>037-041>051-057-063-072>074-172000-
SOUTHWEST AND SOUTH CENTRAL SOUTH DAKOTA

CITY           SKY/WX    TMP DP  RH WIND       PRES   REMARKS
RAPID CTY ARPT CLOUDY    30  21  69 S3        29.90F
PIERRE         CLOUDY    21  13  71 S6        29.96F WCI  13
CUSTER         SUNNY     47   5  18 S5        29.89F
ELLSWORTH AFB  SUNNY     35  19  51 CALM      29.88F
PHILIP         CLOUDY    26  15  63 CALM      29.94F
PINE RIDGE       N/A     29  16  58 SW9       29.97F WCI  20
SPEARFISH      FAIR      48  18  29 W8        29.89S
WINNER         FAIR      46  21  37 SW8       29.98F
$$

SDZ004>011-016>023-039-040-172000-
NORTHEAST SOUTH DAKOTA

CITY           SKY/WX    TMP DP  RH WIND       PRES   REMARKS
ABERDEEN       CLOUDY    17   9  70 S10       29.98F WCI   5
WATERTOWN      CLOUDY    17  14  88 SW8       29.97F WCI   7
BROOKINGS      SUNNY     25  18  74 W9        29.99F WCI  15
SISSETON         N/A     28  24  85 S7        29.94F WCI  21
$$

SDZ017-020-022-023-036>040-048>070-172000-
SOUTHEAST SOUTH DAKOTA

CITY           SKY/WX    TMP DP  RH WIND       PRES   REMARKS
SIOUX FALLS    SUNNY     28  20  71 W6        30.02F WCI  22
HURON          CLOUDY    24  16  71 S5        30.02F WCI  18
CHAMBERLAIN    SUNNY     32  20  59 CALM      30.00F
MITCHELL       SUNNY     30  21  69 CALM      30.04F
YANKTON        SUNNY     28  25  86 CALM      30.05F
$$

ABBREVIATIONS USED IN REMARKS
   TC - TEMPERATURE IN CELSIUS
  WCI - WIND CHILL INDEX
   HX - HEAT INDEX
  VSB - VISIBILITY




USA.gov is the U.S. government's official web portal to all federal, state and local government web resources and services.